Temperature
22 22 22 22 22 22 23 23 24 24 24 24 24 24 23 22 21 19 19 19 18 18 18 18 18 18 18 18 18 18 18 18 18 18 17 17 17 17 17 18 18 18 18 18 18 18 18 18 18
22 22 22 22 22 23 23 23 23 24 24 24 24 24 23 21 20 19 19 19 19 18 18 18 18 18 18 18 18 18 17 18 18 17 17 17 17 17 17 17 18 18 18 18 18 18 18 18 18
22 22 23 23 23 23 23 24 24 24 24 24 24 23 22 21 20 19 19 19 18 18 18 18 18 18 18 18 18 18 17 17 18 17 17 17 17 17 17 17 17 17 17 17 18 18 18 18 18
23 23 24 24 24 24 24 24 25 25 24 24 24 22 20 20 20 19 19 19 18 18 18 18 18 18 18 18 18 18 18 18 18 18 18 17 17 17 17 17 17 17 17 17 17 17 18 18 18
24 24 24 24 24 25 25 25 25 25 24 24 23 22 20 19 19 19 19 19 18 18 18 18 18 18 18 18 18 18 18 18 18 17 17 17 17 17 17 17 17 17 17 17 17 17 17 18 18
24 25 24 23 24 25 25 25 25 25 24 24 23 22 20 19 19 19 19 19 19 18 18 18 18 18 18 18 18 18 18 18 18 17 17 17 17 17 17 17 17 17 17 17 17 17 17 17 17
24 24 24 24 24 24 25 25 25 25 24 24 23 22 20 20 19 19 19 19 19 19 19 18 18 18 18 18 18 18 18 18 18 17 17 17 17 17 17 17 17 17 17 17 17 17 17 17 17
25 25 25 24 24 24 25 25 24 24 24 23 23 22 20 20 19 19 19 19 19 19 19 19 18 18 18 18 18 18 18 18 17 17 17 17 17 17 17 17 17 17 17 17 17 17 17 17 17
25 24 24 24 24 24 25 25 24 24 23 23 22 22 21 20 20 20 19 19 19 19 19 19 19 18 18 18 18 18 18 17 17 17 17 17 17 17 17 17 17 17 17 17 17 17 17 17 17
26 24 24 26 26 25 25 25 24 24 23 23 22 21 20 20 20 20 20 19 19 19 19 19 19 19 18 18 18 18 17 17 17 17 17 17 17 17 17 17 17 17 16 16 16 16 16 16 16
26 25 25 26 26 25 25 24 24 24 23 23 22 21 20 20 20 20 20 20 19 19 19 19 19 19 18 18 18 18 18 17 17 17 17 17 17 17 17 17 16 16 16 16 16 16 16 16 16
26 26 26 25 25 25 25 25 24 24 23 23 22 21 20 20 20 20 20 20 19 19 19 19 19 19 19 18 18 18 18 17 17 17 17 17 17 17 17 17 16 16 16 16 16 16 16 16 16
26 26 25 25 25 25 25 25 24 23 23 23 22 21 21 21 21 20 20 20 20 19 19 19 19 19 19 18 18 18 18 18 17 17 17 17 17 17 17 16 16 16 16 16 16 16 16 16 16
26 25 25 25 25 25 25 24 24 23 23 23 22 21 21 21 21 21 21 20 20 19 19 19 19 19 19 18 18 18 18 17 17 17 17 17 17 17 17 16 16 16 16 16 16 16 16 16 15
26 25 25 25 25 25 25 24 24 23 23 23 22 22 21 21 21 21 21 20 20 20 19 19 19 18 18 18 18 18 18 17 17 17 17 17 17 17 16 16 16 16 16 16 16 16 16 15 15
26 25 24 25 26 25 24 23 24 24 24 23 23 22 21 21 21 21 21 20 20 20 19 19 19 18 18 18 18 18 17 17 17 17 17 17 17 17 16 16 16 16 16 16 16 16 15 15 15
25 25 25 25 26 26 25 24 24 24 24 23 23 22 21 21 21 21 21 20 20 20 19 19 18 18 18 18 18 17 17 17 17 17 17 17 17 16 16 16 16 16 16 16 15 15 15 15 15
25 25 26 25 26 26 25 24 25 24 24 24 23 23 22 21 21 21 21 20 20 20 19 19 18 18 18 18 17 17 17 17 17 17 16 16 16 16 16 16 16 16 15 15 15 15 15 15 15
26 26 26 26 26 26 25 25 25 24 24 24 23 23 22 22 21 21 20 20 20 19 19 19 18 18 18 17 17 17 17 17 16 16 16 16 16 16 16 16 16 15 15 15 15 15 15 15 15
26 25 25 26 26 26 25 25 25 25 24 24 23 23 22 22 21 20 20 20 19 19 19 19 18 18 18 17 17 17 17 16 16 16 16 16 16 16 16 16 15 15 15 15 15 15 15 15 15
26 25 25 25 26 26 25 24 24 25 24 23 23 23 22 22 21 20 20 19 19 19 19 19 18 18 18 17 17 17 16 16 16 16 16 16 16 16 16 15 15 15 15 15 15 15 15 15 15
25 26 26 25 24 24 25 23 24 24 24 24 23 22 22 22 21 20 19 19 19 19 19 18 18 18 17 17 17 17 16 16 16 16 16 16 16 16 15 15 15 15 15 15 15 15 15 15 15
25 26 25 25 24 24 25 24 24 24 23 23 23 22 22 21 21 20 19 19 19 19 18 18 18 18 17 17 17 17 16 16 16 16 16 16 15 15 15 15 15 15 15 15 15 15 15 14 14
26 26 25 25 24 23 24 24 23 24 24 24 23 22 22 21 21 20 19 19 19 18 18 18 18 18 17 17 17 17 16 16 16 16 16 15 15 15 15 15 15 15 15 15 15 15 14 14 14
25 24 23 22 22 23 25 25 23 24 24 24 23 22 22 21 20 20 19 19 18 18 18 18 18 18 17 17 17 17 16 16 16 16 15 15 15 15 15 15 15 15 15 15 15 14 14 14 14
25 24 22 22 22 24 25 24 23 24 24 23 23 22 21 21 20 19 19 18 18 18 17 17 17 17 17 17 17 17 16 16 16 16 15 15 15 15 15 15 15 15 15 14 14 14 14 14 14
24 24 25 23 23 23 24 23 23 24 23 23 22 21 21 20 20 19 18 18 18 17 17 17 17 17 17 17 17 17 16 16 16 16 15 15 15 15 15 15 15 15 14 14 14 14 14 14 14
25 24 24 23 22 22 23 23 22 22 23 23 22 21 20 20 19 19 18 18 17 17 17 17 17 16 16 16 16 16 16 16 16 16 15 15 15 15 15 15 14 14 14 14 14 14 14 14 14
24 24 24 23 23 22 21 22 23 23 22 22 22 21 20 20 19 18 18 17 17 17 17 16 16 16 16 16 16 16 16 16 16 15 15 15 15 15 15 14 14 14 14 14 14 14 14 14 14
24 24 23 22 22 22 22 21 24 23 22 22 21 21 20 19 19 18 17 17 17 16 16 16 16 16 16 16 16 16 16 15 15 15 15 15 15 15 14 14 14 14 14 14 14 14 14 13 13
Wind_Speed
10 10 7 3 2 1 6 6 7 7 7 8 9 9 12 12 8 7 1 5 8 9 11 12 12 12 12 12 12 12 12 12 12 12 12 13 13 13 13 13 13 13 13 13 12 13 13 13 12
9 5 4 3 2 2 5 6 9 9 6 5 8 11 13 11 10 7 4 5 8 10 12 12 12 12 12 12 12 12 12 12 12 12 13 13 13 14 13 13 13 13 13 13 13 13 13 13 13
10 7 4 2 3 5 6 7 8 9 6 6 7 10 8 7 8 5 4 4 9 11 14 12 12 12 12 12 12 11 12 12 12 12 13 13 13 13 13 13 13 13 13 13 13 13 13 13 13
6 3 3 2 8 10 8 7 7 8 7 7 8 9 8 8 6 7 5 6 10 11 14 12 12 12 12 11 11 12 12 12 12 12 12 12 13 13 13 13 13 13 14 14 13 13 13 13 13
4 2 1 4 8 8 7 7 7 8 8 9 11 10 9 8 8 7 5 7 9 9 12 12 12 12 12 12 11 11 11 11 11 11 11 12 12 12 13 13 13 13 14 14 13 13 13 12 12
3 2 0 4 7 7 6 6 7 9 9 8 10 10 7 6 6 6 5 6 8 8 11 12 12 12 12 11 11 11 11 10 10 10 10 11 12 12 12 13 12 13 13 13 12 12 12 11 10
3 2 2 5 7 6 6 6 7 7 9 7 7 9 7 7 4 5 5 7 6 6 8 11 11 12 12 11 10 10 10 9 9 9 9 9 10 11 12 12 12 12 12 11 11 10 10 9 8
3 2 2 4 5 6 7 6 7 8 9 7 6 6 7 8 6 6 5 5 5 5 5 7 10 12 12 11 10 9 8 7 7 8 7 7 8 10 11 11 11 10 9 8 7 7 7 6 6
2 1 3 5 5 6 7 6 6 7 8 9 10 11 10 9 7 6 5 4 5 5 4 4 5 8 9 10 10 8 7 6 6 5 6 6 6 8 10 10 9 8 6 5 3 3 3 2 2
0 3 5 6 6 7 6 6 5 6 7 8 10 11 10 7 6 5 4 5 5 4 3 4 4 5 6 6 7 6 6 5 5 4 5 3 5 8 9 9 7 5 4 2 1 2 2 1 1
2 4 6 7 7 7 6 6 5 5 5 7 8 9 8 6 5 4 4 5 5 4 4 4 4 4 4 3 4 3 4 3 2 4 7 6 6 6 7 5 4 3 2 1 2 2 2 4 4
4 5 6 6 6 6 6 5 5 6 6 8 9 9 7 5 4 4 5 5 4 5 3 4 3 3 3 4 4 2 2 2 3 4 7 5 3 3 4 4 3 3 3 4 4 4 7 7 8
4 5 6 6 4 5 5 5 5 7 7 8 9 9 7 5 3 3 5 6 5 5 4 3 2 2 3 4 2 3 4 3 4 4 4 6 3 2 3 3 3 4 4 3 3 4 5 6 7
5 5 5 4 3 3 4 5 4 6 6 7 7 7 7 5 4 4 5 4 5 6 5 4 2 2 3 4 2 3 4 3 4 3 3 5 4 3 3 3 3 3 3 4 4 4 4 4 4
4 5 4 4 4 3 2 3 4 7 7 6 6 6 6 5 4 3 4 3 4 5 5 5 3 2 3 4 4 4 3 4 3 3 4 5 5 4 4 3 2 2 4 5 4 4 4 4 4
5 5 4 5 5 4 3 2 6 7 7 6 6 6 5 4 4 3 3 3 4 6 6 6 4 3 4 5 4 3 3 4 3 4 4 5 5 6 4 2 2 3 4 3 2 3 3 4 4
6 5 5 6 5 4 4 2 6 6 6 5 5 6 6 5 4 4 3 3 4 5 5 6 5 3 5 4 3 3 3 3 3 4 4 5 6 6 4 2 1 4 3 2 3 3 3 3 3
3 4 2 3 5 4 4 4 6 7 6 6 5 5 6 6 4 3 3 4 3 4 5 5 5 4 5 3 2 3 3 2 3 3 4 5 5 5 4 2 3 4 3 2 2 3 3 2 2
4 3 2 1 4 4 5 5 6 7 6 4 5 5 5 5 6 5 4 4 3 2 4 4 5 5 4 3 2 2 1 1 2 2 3 3 4 4 4 3 2 3 3 2 2 2 2 1 2
5 5 3 1 2 3 5 4 5 6 7 5 3 3 4 3 5 4 3 3 3 3 3 4 4 5 5 3 2 2 2 1 1 1 2 3 3 4 3 2 2 3 2 2 2 3 1 1 1
5 4 4 3 3 5 5 5 5 6 7 6 4 3 4 4 4 5 4 3 2 3 2 2 3 5 5 4 3 3 2 1 2 1 1 1 2 3 3 2 2 1 2 1 1 2 1 1 2
4 3 5 5 5 5 6 3 3 7 7 7 6 4 3 3 3 5 5 4 3 2 3 3 3 4 5 5 3 3 2 1 1 1 1 1 2 2 2 2 2 1 1 1 0 2 1 1 1
4 5 7 8 7 8 8 4 3 6 7 7 7 5 4 4 3 4 5 4 3 2 2 3 3 4 5 5 4 3 2 1 1 2 2 1 1 2 2 2 2 1 1 1 1 1 1 1 0
5 7 9 9 6 7 9 6 2 3 6 7 7 7 5 4 4 4 5 4 3 3 3 1 2 3 4 5 5 4 3 2 2 2 1 1 1 1 1 2 1 1 1 1 1 1 1 1 0
7 6 3 4 5 5 4 3 3 7 8 7 7 6 5 5 4 4 4 4 3 3 2 1 1 2 3 4 4 5 4 3 3 1 1 1 1 1 2 1 1 1 1 1 1 1 1 1 1
6 6 4 4 4 3 1 1 6 9 9 8 7 6 5 4 4 4 4 4 3 3 2 1 1 1 3 3 3 3 4 3 2 2 2 1 1 2 2 1 1 1 1 1 1 1 0 1 1
7 6 7 8 10 7 3 4 5 7 8 7 7 6 4 4 4 4 4 4 3 3 2 1 1 0 1 2 2 2 3 2 2 2 2 1 1 2 2 2 2 1 1 1 2 1 1 0 1
7 8 6 5 5 6 5 3 4 7 6 5 5 5 4 4 3 3 3 3 3 3 2 2 2 1 1 1 2 2 2 2 2 2 2 2 2 1 2 1 1 2 1 1 1 1 1 1 0
6 7 6 5 5 4 4 1 3 6 5 4 5 5 4 4 3 3 3 3 3 3 2 2 2 1 0 0 0 2 2 2 2 2 2 2 2 2 2 2 2 2 2 2 2 2 2 2 2
6 7 6 5 5 6 5 1 5 5 5 4 5 5 4 4 4 4 3 3 2 2 2 2 2 1 1 1 1 1 1 2 1 1 1 1 2 3 3 2 2 2 2 2 2 2 3 3 3
Wind_Direction
274 249 240 241 256 120 63 59 63 56 56 50 46 59 65 52 53 85 95 53 71 81 79 69 63 65 65 64 65 65 66 69 70 72 74 75 73 71 70 69 67 65 64 64 61 59 57 54 50
274 265 256 240 269 84 74 69 67 63 65 67 61 64 70 63 71 91 85 63 76 80 77 72 69 68 67 68 70 69 69 69 71 73 76 74 73 72 71 70 69 67 67 65 62 62 59 56 52
261 260 264 262 35 64 84 80 85 82 68 64 72 59 54 60 69 89 100 98 87 84 83 79 76 73 73 72 72 74 73 72 73 76 78 77 75 73 72 70 69 69 68 66 64 64 61 58 53
263 257 249 58 64 65 82 98 97 90 73 64 80 76 68 55 73 94 104 96 91 92 91 90 85 81 79 78 76 75 76 75 75 77 81 79 76 74 72 71 68 69 69 67 65 64 62 58 54
243 256 225 89 81 80 78 83 90 84 78 69 78 89 84 73 83 95 92 91 91 97 103 100 95 91 85 80 78 80 81 80 79 81 83 81 79 77 74 72 71 70 69 67 64 64 61 58 52
279 266 132 95 94 86 81 74 79 85 90 89 91 98 94 104 97 99 98 92 94 100 110 110 108 103 96 90 85 84 87 87 86 86 87 87 84 81 77 74 74 72 69 68 67 66 63 59 51
293 310 83 104 105 97 81 59 64 76 75 68 84 101 114 112 112 111 103 97 102 103 114 129 127 115 107 102 98 96 95 97 98 99 100 98 93 88 82 78 77 77 73 71 70 69 66 59 49
299 313 67 89 99 94 89 77 65 71 72 62 61 97 122 130 136 115 103 97 98 95 102 125 132 131 128 119 115 114 113 115 116 120 123 121 115 105 97 89 85 83 80 78 77 76 73 62 45
280 16 56 73 90 96 97 92 85 81 87 76 68 82 113 128 132 125 118 106 91 85 80 90 108 117 124 125 131 140 141 145 146 147 157 159 151 124 104 99 102 99 96 95 94 100 100 85 58
57 56 63 66 81 98 98 91 101 101 90 91 89 97 113 121 124 123 115 102 90 85 81 83 86 96 102 102 132 150 143 149 163 156 141 127 91 94 102 114 116 123 128 147 209 247 231 228 69
84 81 74 72 78 97 98 94 99 98 92 100 110 113 120 128 130 127 119 107 102 87 64 82 90 86 96 97 95 91 110 131 114 88 95 85 80 97 111 127 133 146 150 18 31 3 33 74 64
89 79 79 81 80 93 99 103 94 80 80 94 110 116 124 133 139 138 126 115 114 99 74 67 69 86 93 92 89 78 72 79 69 52 80 83 65 66 82 80 57 61 54 35 26 34 43 46 49
101 97 93 93 94 101 108 104 95 99 99 100 111 120 125 137 141 137 127 128 134 126 127 103 92 89 94 93 80 93 74 48 71 47 73 96 91 78 82 79 57 50 45 41 32 50 52 44 44
96 103 108 123 126 121 121 122 124 116 121 122 123 129 137 143 147 134 121 121 132 127 131 118 102 85 87 96 88 73 76 76 69 50 28 94 95 90 87 74 61 49 41 43 50 59 60 61 53
136 144 149 165 167 148 146 157 146 139 148 144 142 135 132 138 131 120 121 134 124 120 119 111 105 96 87 86 72 64 60 71 66 58 21 56 82 85 80 71 67 58 49 44 44 55 61 67 65
201 198 183 174 182 167 209 185 140 144 157 157 154 142 142 145 145 138 125 123 110 111 114 111 105 78 72 77 76 66 67 64 61 59 37 31 58 80 82 81 69 71 65 52 46 60 64 59 56
217 216 189 164 174 178 202 172 140 155 161 163 163 152 152 154 153 140 137 134 116 117 122 118 112 97 84 83 95 66 63 60 63 65 51 37 40 61 74 64 78 71 60 43 37 47 71 74 70
230 235 207 165 162 193 212 178 163 167 172 173 168 164 161 162 164 148 138 120 110 118 124 126 130 120 111 101 87 81 69 64 51 59 58 51 45 46 63 58 53 70 68 51 51 51 50 75 74
298 290 273 163 146 210 233 201 174 168 173 183 172 166 162 166 162 156 147 134 132 139 129 126 135 129 121 110 90 85 83 80 72 73 67 65 64 52 64 55 48 67 74 56 51 70 53 54 84
278 278 271 215 167 233 258 226 168 169 173 182 184 166 153 150 132 127 143 155 157 142 133 138 139 135 123 114 120 121 106 99 97 81 70 64 72 71 72 73 67 67 78 57 50 59 48 360 55
270 281 290 275 252 241 254 250 194 179 173 168 179 173 153 158 144 140 140 128 140 137 126 128 134 124 122 131 119 100 78 59 64 75 90 76 80 79 84 69 80 95 90 91 78 89 67 10 329
280 298 288 278 266 256 225 242 189 172 169 165 163 161 144 139 146 138 135 129 124 131 141 145 148 135 131 127 116 128 132 146 143 117 122 99 74 94 93 75 74 106 105 112 139 105 104 76 336
288 294 280 270 264 268 257 250 189 165 160 156 153 151 145 140 131 119 121 129 131 116 128 166 156 143 138 139 139 140 133 150 119 112 107 131 108 90 98 92 72 90 114 124 110 91 89 94 53
280 271 259 252 255 254 246 236 191 159 143 136 137 139 138 127 119 113 114 110 105 104 102 125 161 147 148 149 150 154 156 149 109 98 110 133 118 126 117 103 106 124 152 131 117 133 141 138 89
254 271 274 237 227 238 227 214 126 99 99 99 105 108 115 117 113 108 104 103 100 103 111 119 127 144 157 168 165 157 162 162 155 162 158 179 147 146 156 153 182 182 120 98 107 119 143 148 142
262 258 266 286 285 291 256 175 116 110 105 102 103 98 98 105 109 110 111 110 112 111 105 117 131 158 174 181 167 157 157 163 165 177 167 192 162 153 146 143 121 67 72 107 112 100 124 121 126
272 271 276 279 285 283 226 135 131 131 127 120 114 111 108 99 99 106 110 111 116 122 130 135 123 97 180 182 159 152 159 161 162 173 161 160 164 157 144 155 158 160 126 120 127 148 202 101 99
264 287 289 276 288 284 283 219 170 149 132 129 128 122 113 101 94 99 103 110 113 123 147 157 136 131 139 171 178 150 157 164 165 170 169 159 165 150 153 169 166 167 160 155 144 174 182 152 196
241 248 258 277 276 287 290 13 91 125 125 127 117 110 113 110 103 94 98 98 93 110 126 135 123 115 141 180 155 143 153 153 154 160 154 162 167 162 170 185 178 169 170 169 170 199 201 202 206
267 272 272 272 281 287 286 137 108 104 98 106 110 107 108 111 111 104 97 93 96 113 136 141 144 163 193 205 203 170 132 137 149 174 170 179 189 182 183 191 182 187 179 180 192 214 216 203 203
Height
1499 1499 1500 1501 1502 1505 1508 1506 1502 1502 1503 1505 1505 1505 1509 1513 1517 1527 1527 1525 1524 1522 1520 1519 1518 1518 1518 1518 1518 1518 1519 1519 1519 1520 1520 1520 1521 1521 1520 1520 1520 1520 1520 1520 1519 1519 1519 1518 1517
1499 1500 1502 1502 1504 1512 1513 1505 1506 1506 1507 1507 1507 1508 1511 1517 1520 1524 1525 1525 1524 1523 1522 1521 1520 1520 1520 1520 1520 1520 1521 1521 1521 1522 1522 1522 1522 1523 1523 1522 1522 1522 1522 1521 1521 1521 1520 1520 1518
1500 1501 1502 1500 1503 1510 1512 1506 1506 1507 1508 1507 1509 1512 1516 1521 1523 1525 1526 1526 1525 1524 1523 1522 1522 1522 1522 1522 1522 1523 1523 1523 1524 1524 1524 1524 1524 1524 1524 1524 1524 1524 1523 1523 1523 1522 1522 1521 1521
1502 1503 1502 1503 1508 1505 1505 1505 1505 1507 1509 1509 1510 1516 1521 1524 1525 1526 1527 1527 1526 1526 1525 1524 1524 1524 1524 1524 1524 1525 1525 1525 1526 1526 1526 1526 1526 1526 1526 1526 1526 1526 1525 1525 1525 1524 1524 1523 1523
1503 1503 1503 1507 1507 1505 1505 1505 1506 1508 1510 1512 1513 1519 1524 1526 1527 1527 1528 1528 1528 1528 1527 1526 1526 1526 1526 1526 1526 1527 1527 1527 1528 1528 1528 1528 1528 1528 1528 1528 1528 1527 1527 1527 1527 1526 1526 1525 1525
1504 1501 1508 1513 1510 1506 1506 1507 1508 1509 1511 1513 1516 1520 1526 1528 1528 1529 1529 1529 1529 1529 1529 1528 1528 1528 1528 1528 1528 1529 1529 1529 1529 1530 1530 1530 1530 1530 1530 1530 1530 1529 1529 1529 1528 1528 1528 1527 1527
1504 1503 1507 1509 1511 1510 1508 1509 1509 1511 1513 1515 1517 1521 1526 1528 1529 1530 1530 1531 1531 1531 1530 1530 1530 1530 1530 1530 1530 1531 1531 1531 1531 1531 1532 1532 1532 1532 1532 1532 1531 1531 1531 1531 1530 1530 1530 1529 1529
1504 1503 1506 1507 1511 1511 1509 1511 1512 1513 1516 1518 1518 1521 1526 1529 1530 1531 1531 1532 1532 1532 1532 1532 1532 1532 1532 1532 1532 1532 1532 1533 1533 1533 1534 1534 1534 1534 1534 1533 1533 1533 1533 1533 1532 1532 1532 1531 1531
1504 1507 1511 1509 1510 1511 1510 1512 1515 1516 1518 1520 1521 1523 1526 1528 1530 1531 1532 1533 1533 1534 1534 1534 1534 1534 1534 1534 1534 1534 1534 1534 1534 1535 1535 1535 1535 1536 1535 1535 1535 1535 1535 1535 1534 1534 1534 1534 1533
1504 1510 1510 1506 1507 1510 1512 1513 1516 1517 1519 1521 1523 1526 1527 1529 1531 1532 1533 1534 1535 1535 1535 1535 1536 1536 1536 1536 1535 1535 1536 1536 1536 1536 1537 1537 1538 1538 1537 1537 1537 1537 1537 1536 1536 1536 1536 1536 1536
1504 1508 1507 1508 1509 1511 1513 1515 1516 1518 1520 1522 1524 1527 1528 1530 1531 1532 1533 1534 1535 1536 1536 1536 1537 1537 1537 1537 1537 1538 1538 1538 1538 1538 1538 1539 1539 1539 1538 1538 1538 1538 1538 1538 1538 1538 1538 1538 1538
1506 1507 1509 1511 1512 1513 1515 1516 1518 1520 1522 1523 1525 1527 1529 1530 1532 1533 1534 1535 1535 1536 1537 1537 1537 1537 1538 1538 1538 1538 1539 1539 1539 1540 1540 1540 1540 1540 1540 1540 1540 1540 1540 1540 1540 1539 1539 1539 1539
1508 1510 1511 1513 1514 1515 1516 1517 1519 1521 1523 1525 1526 1527 1529 1530 1532 1532 1534 1535 1535 1536 1537 1538 1538 1538 1538 1539 1539 1539 1539 1540 1540 1540 1541 1541 1541 1541 1541 1541 1541 1541 1541 1541 1541 1541 1540 1540 1540
1510 1511 1513 1514 1515 1516 1517 1518 1520 1522 1524 1525 1527 1528 1529 1530 1531 1532 1533 1535 1535 1536 1537 1538 1538 1539 1539 1539 1539 1540 1540 1540 1541 1541 1541 1541 1541 1541 1541 1542 1542 1542 1542 1542 1542 1542 1542 1541 1541
1511 1512 1514 1514 1515 1516 1517 1519 1519 1521 1523 1525 1526 1528 1529 1530 1531 1532 1533 1534 1535 1536 1537 1537 1538 1539 1540 1540 1540 1540 1541 1541 1541 1541 1542 1542 1542 1542 1542 1542 1543 1543 1543 1543 1543 1543 1543 1543 1543
1510 1513 1518 1513 1513 1514 1520 1525 1518 1520 1522 1524 1525 1527 1529 1530 1531 1532 1533 1534 1535 1536 1537 1537 1538 1539 1540 1540 1540 1541 1541 1541 1541 1542 1542 1542 1542 1542 1542 1543 1543 1544 1544 1544 1544 1544 1544 1544 1543
1511 1516 1516 1513 1510 1512 1516 1520 1517 1519 1521 1523 1524 1526 1528 1530 1531 1532 1533 1534 1535 1536 1536 1537 1538 1539 1539 1540 1540 1541 1541 1541 1542 1542 1542 1542 1542 1543 1543 1543 1544 1544 1544 1544 1544 1545 1544 1544 1544
1515 1512 1511 1512 1509 1511 1514 1516 1515 1517 1519 1521 1523 1525 1526 1528 1530 1531 1532 1533 1535 1535 1536 1537 1537 1538 1539 1539 1540 1540 1541 1542 1542 1542 1542 1542 1542 1543 1543 1543 1544 1544 1544 1544 1545 1545 1545 1545 1546
1506 1509 1511 1508 1506 1510 1512 1513 1513 1515 1517 1519 1521 1523 1525 1526 1528 1530 1531 1532 1534 1535 1535 1536 1537 1538 1538 1539 1540 1540 1541 1541 1542 1542 1542 1542 1542 1543 1543 1543 1544 1544 1544 1544 1545 1545 1545 1546 1546
1507 1511 1511 1507 1505 1508 1510 1510 1510 1512 1515 1517 1519 1521 1523 1525 1527 1528 1530 1531 1532 1534 1534 1535 1536 1537 1537 1538 1539 1540 1541 1541 1541 1542 1542 1542 1542 1542 1543 1543 1544 1544 1544 1544 1545 1545 1545 1546 1546
1508 1511 1510 1510 1507 1507 1511 1514 1511 1510 1512 1515 1518 1520 1521 1524 1525 1527 1528 1530 1531 1532 1533 1534 1535 1536 1537 1538 1539 1539 1540 1541 1541 1541 1541 1541 1542 1542 1542 1543 1543 1544 1544 1544 1545 1545 1545 1546 1546
1513 1507 1507 1509 1513 1516 1511 1524 1512 1508 1510 1512 1516 1518 1521 1523 1524 1525 1526 1528 1529 1530 1532 1533 1534 1535 1536 1537 1538 1538 1539 1539 1540 1540 1540 1541 1541 1542 1542 1542 1543 1543 1544 1544 1544 1545 1545 1546 1546
1508 1505 1506 1508 1512 1515 1509 1517 1514 1505 1510 1511 1514 1517 1519 1521 1523 1524 1525 1527 1528 1529 1530 1532 1533 1534 1535 1536 1536 1537 1538 1539 1539 1539 1540 1540 1540 1541 1541 1542 1542 1543 1543 1543 1544 1544 1544 1545 1545
1505 1506 1505 1506 1511 1524 1510 1514 1517 1507 1507 1508 1511 1515 1518 1520 1522 1524 1525 1525 1526 1527 1529 1530 1532 1533 1534 1534 1535 1536 1537 1537 1538 1538 1539 1539 1539 1540 1540 1541 1541 1542 1542 1542 1543 1543 1543 1544 1544
1506 1514 1524 1526 1527 1520 1500 1507 1513 1504 1504 1507 1511 1514 1517 1519 1521 1523 1524 1524 1525 1526 1527 1529 1530 1531 1532 1533 1534 1534 1535 1536 1537 1537 1538 1538 1538 1539 1539 1540 1540 1541 1541 1541 1542 1542 1542 1543 1543
1507 1511 1527 1535 1528 1515 1503 1510 1509 1502 1505 1509 1512 1515 1517 1519 1520 1522 1523 1524 1525 1525 1526 1527 1528 1529 1531 1531 1532 1533 1534 1535 1535 1536 1537 1537 1537 1538 1538 1538 1539 1539 1540 1540 1541 1541 1541 1542 1542
1509 1509 1506 1516 1515 1518 1509 1508 1506 1503 1506 1509 1512 1515 1517 1518 1520 1521 1522 1523 1523 1524 1525 1526 1527 1528 1529 1530 1530 1532 1532 1533 1534 1534 1535 1535 1536 1536 1537 1537 1537 1538 1538 1539 1539 1539 1540 1540 1541
1506 1507 1510 1516 1526 1528 1516 1511 1513 1509 1508 1509 1512 1514 1517 1518 1519 1520 1521 1522 1523 1523 1524 1525 1526 1526 1527 1528 1529 1530 1531 1531 1532 1533 1533 1534 1534 1534 1535 1535 1535 1536 1536 1537 1537 1538 1538 1539 1539
1508 1508 1509 1512 1514 1526 1529 1522 1503 1505 1507 1509 1511 1514 1516 1518 1519 1520 1521 1521 1522 1522 1523 1524 1524 1525 1525 1526 1527 1528 1528 1529 1530 1531 1531 1532 1532 1532 1533 1533 1533 1534 1534 1535 1535 1536 1536 1537 1537
1504 1506 1509 1520 1520 1515 1521 1521 1501 1504 1507 1509 1511 1514 1515 1517 1518 1519 1520 1520 1521 1521 1522 1522 1523 1523 1524 1524 1525 1526 1526 1527 1528 1528 1529 1530 1530 1531 1531 1531 1531 1532 1532 1533 1533 1534 1534 1535 1535